Vereeniging Airport

Jump to: basic info | weather | frequencies | runways | comments

Related pages: nearby airports | nearby navaids | notams | map

Basic information (top)

Codes: FAVV
Location: lon -26.566401, lat 27.960800, elev 4,846 ft / 1,477 m msl
Status: medium_airport

Weather (top)

Current conditions (rec'd 2015/04/27 18:00Z):

FAVV 271800Z AUTO /////KT //// // ////// 12/07 Q1023

Airport forecast for OR Tambo International Airport 30nm (55km) NNE (rec'd 2015/04/26 00:00Z):

TAF FAOR 262210Z 2700/2806 VRB04KT CAVOK 
     FM270900 29012KT CAVOK PROB30 
      TEMPO 2711/2715 SCT045 
      BECMG 2715/2717 VRB04KT 
      BECMG 2720/2722 25007KT TX24/2712ZTN10/2802Z

Frequencies (top)

Verify before use: may be inaccurate or out of date.

CTAF: 122.1 MHz (CTAF)

Runways (top)

03/21: 5,266 x 72 ft (1,605 x 22 m) — paved — lighted — threshold 21 displaced 260 ft (79 m)

15/33: 3,724 x 52 ft (1,135 x 16 m) — paved — not lighted

Latest comments (top)

help: My son whom is in Grade 11 has a school ... [read]

Information: Good day this is Mpho, i just need to ... [read]

More... (top)

See also NOTAMs and nearby airports and navaids, or visit the Vereeniging Airport page at the main OurAirports website..